Regional Weather Roundup
Issued by NWS Charleston, SC

Current Version | Previous Version | Graphics & Text | Print | Product List | Glossary On
Versions: 1 2 3 4 5 6 7 8 9 10 11 12 13 14 15 16 17 18 19 20 21 22 23 24 25 26 27 28 29 30 31 32 33 34 35 36 37 38 39 40 41 42 43 44 45 46 47 48 49 50
000
ASUS42 KCHS 280026
RWRCHS

REGIONAL WEATHER ROUNDUP
NATIONAL WEATHER SERVICE CHARLESTON SC
800 PM EDT MON APR 27 2015

NOTE: "FAIR" INDICATES FEW OR NO CLOUDS BELOW 12,000 FEET WITH NO
SIGNIFICANT WEATHER AND/OR OBSTRUCTIONS TO VISIBILITY.

NOT ALL STATIONS ARE QUALITY CONTROLLED BY THE NATIONAL
WEATHER SERVICE. USE DATA WITH CAUTION...ESPECIALLY
DEWPOINT OBSERVATIONS.

SCZ027-030-031-034>040-042>050-280100-
...SOUTHEAST SOUTH CAROLINA...

CITY           SKY/WX    TMP DP  RH WIND       PRES   REMARKS
N CHARLESTON   MOCLDY    68  45  43 N3        29.83S
6HR MIN TEMP:  67; 6HR MAX TEMP:  73;

WATERFRONT PRK   N/A     66 N/A N/A S9          N/A
MOUNT PLEASANT FAIR      63  52  67 MISG      29.84R
PINOPOLIS      NOT AVBL
MONCKS CORNER  FAIR      61  55  82 CALM      29.84R
SUMMERVILLE    FAIR      63  55  77 CALM      29.85R
BEAUFORT MCAS  MOCLDY    67  55  65 CALM      29.84S
6HR MIN TEMP:  67; 6HR MAX TEMP:  74;

BEAUFORT ARPT  FAIR      63  55  77 CALM      29.85R
HILTON HEAD IS PTCLDY    64  57  77 CALM      29.86R
WALTERBORO     MOCLDY    63  54  72 CALM      29.86R
ALLENDALE      FAIR      64  54  68 CALM      29.84R

...SOUTHERN MIDLANDS AND PEE DEE...

CITY           SKY/WX    TMP DP  RH WIND       PRES   REMARKS
GEORGETOWN     NOT AVBL
KINGSTREE      NOT AVBL
ORANGEBURG     CLOUDY    67  47  48 CALM      29.84R
6HR MIN TEMP:  67; 6HR MAX TEMP:  73;

BARNWELL       FAIR      66  55  68 CALM      29.85R
AIKEN          FAIR      61  50  67 CALM      29.88R
MANNING        FAIR      59  39  47 CALM      29.84R
COLUMBIA       CLOUDY    70  46  42 CALM      29.82S
6HR MIN TEMP:  68; 6HR MAX TEMP:  73;

SUMTER         CLOUDY    66  46  48 N5        29.82S
6HR MIN TEMP:  66; 6HR MAX TEMP:  73;

FLORENCE       CLOUDY    64  46  52 N3        29.83R
6HR MIN TEMP:  64; 6HR MAX TEMP:  73;

MYRTLE BEACH   CLEAR     66  45  45 NW5       29.84S
N MYRTLE BEACH MOCLDY    64  48  56 NW3       29.82S
6HR MIN TEMP:  64; 6HR MAX TEMP:  72;


$$

GAZ063-065-086>088-099>101-113>116-118-119-134>141-150-280100-
...SOUTHEAST GEORGIA...

CITY           SKY/WX    TMP DP  RH WIND       PRES   REMARKS
SAVANNAH ARPT  CLOUDY    68  53  58 NE5       29.84S
6HR MIN TEMP:  68; 6HR MAX TEMP:  75;

HUNTER AAF     MOCLDY    66  61  82 SE6       29.82S
6HR MIN TEMP:  66; 6HR MAX TEMP:  75;

FORT STEWART   MOCLDY    67  60  77 CALM      29.81S
6HR MIN TEMP:  67; 6HR MAX TEMP:  75; 6HR PCP: TRACE;

STATESBORO       N/A     63  56  78 CALM      29.85R
SYLVANIA       MOCLDY    62  59  88 CALM      29.86R
CLAXTON        FAIR      64  61  88 CALM      29.85R

...CSRA...CENTRAL AND FAR SOUTHEAST GEORGIA...

CITY           SKY/WX    TMP DP  RH WIND       PRES   REMARKS
THOMSON        CLOUDY    65  61  87 CALM      29.88R
AUGUSTA-BUSH   CLOUDY    63  55  75 S3        29.83R
6HR MIN TEMP:  63; 6HR MAX TEMP:  74;

AUGUSTA-DANIEL CLOUDY    70  47  43 CALM      29.84R
SWAINSBORO     NOT AVBL
VIDALIA        CLOUDY    68  57  68 CALM      29.85R
EASTMAN        FAIR      65  62  87 CALM      29.86F
HAZLEHURST     FAIR      69  62  79 CALM      29.85R
ALMA           CLOUDY    68  61  78 SW3       29.84R
6HR MIN TEMP:  67; 6HR MAX TEMP:  72;

WAYCROSS       CLOUDY    69  66  89 CALM      29.84S
JESUP          FAIR      70  64  83 CALM      29.85R
BAXLEY         FAIR      70  63  78 CALM      29.84R
BRUNSWICK      CLOUDY    64  61  88 CALM      29.85S
SAINT SIMONS   CLOUDY    67  60  78 CALM      29.84S
6HR MIN TEMP:  65; 6HR MAX TEMP:  70;


$$

SCZ027-028-034-036>038-045-046-048>050-GAZ119-141-280100-
...LAKE AND SUPPLEMENTAL COASTAL OBSERVATIONS...

STATION/POSITION TIME  TEMP    WIND        PRES    WAVE   SWELL
                       AIR SEA DIR/SP/G            HT/PER HT/PER/DIR
                 (UTC) (F)     (DEG/KT/KT) (MB)    (FT/S) (FT/S/D)
UPR LAKE MARION  NOT AVBL
WINYAH BAY       2300   66     220/  6     1009.0S
LAKE MURRAY      2300   68      CALM  /  2 1009.5S
ACE BASIN NERRS  NOT AVBL
FORT PULASKI     2300          160/  4/  5 1010.9S
SAPELO ISLAND    0000   66     140/  4     1010.0S

$$

ANZ835-935-AMZ111-154-330-350-352-354-370-450-454-472-280100-
...C-MAN AND BUOY OBSERVATIONS...

STATION/POSITION TIME  TEMP    WIND        PRES    WAVE   SWELL
                       AIR SEA DIR/SP/G            HT/PER HT/PER/DIR
                 (UTC) (F)     (DEG/KT/KT) (MB)    (FT/S) (FT/S/D)
BUOY 41004       2350   65 71  190/  2/  4 1010.2R   3/ 5   2/ 5
BUOY 41008       2350   65 69  150/  8/  8 1010.8F   2/ 6   2/ 60/ 6
FOLLY BEACH CMAN 0000   65     190/  8/  9 1010.4R
CAPERS NEARSHORE 2308   69     340/ 10/ 14 1009.9S
FRIPP NEARSHORE  2300   68     170/  4/  6 1010.2R


STATION/POSITION TIME  TEMP    WIND        PRES    WAVE   SWELL
                       AIR SEA DIR/SP/G            HT/PER HT/PER/DIR
                 (UTC) (F)     (DEG/KT/KT) (MB)    (FT/S) (FT/S/D)
5E ST. MARYS GA  2321      70                N/A     2/ 6
FRYING PAN BUOY  2350   65 71  250/  6/  8 1010.4R   3/ 8   3/ 70/ 8
BUOY 41025       2350   62 74   30/ 16/ 21 1008.2R   3/ 8   3/110/ 8
CAPE LOOKOUT NC  0000   64     290/  9/ 11 1008.9R
BUOY 41002       2350   67 71  360/ 14/ 16 1008.6R   5/ 8   3/ 10/ 8
BUOY 41010       2320   77 80  360/ 14/ 16 1008.7F
ST AUGUSTINE FL  0000   68 69   20/ 12/ 12 1011.4R


$$


USA.gov is the U.S. government's official web portal to all federal, state and local government web resources and services.